Year,Month,Day,Hour,Minute,Value (Times are PST for temperature in C)
2014,01,12,00,00,2.30
2014,01,12,00,01,2.30
2014,01,12,00,02,2.30
2014,01,12,00,03,2.30
2014,01,12,00,04,2.30
2014,01,12,00,05,2.20
2014,01,12,00,06,2.20
2014,01,12,00,07,2.30
2014,01,12,00,08,2.30
2014,01,12,00,09,2.30
2014,01,12,00,10,2.40
2014,01,12,00,11,2.40
2014,01,12,00,12,2.50
2014,01,12,00,13,2.50
2014,01,12,00,14,2.60
2014,01,12,00,15,2.60
2014,01,12,00,16,2.70
2014,01,12,00,17,2.80
2014,01,12,00,18,2.80
2014,01,12,00,19,2.90
2014,01,12,00,20,3.00
2014,01,12,00,21,3.10
2014,01,12,00,22,3.10
2014,01,12,00,23,3.20
2014,01,12,00,24,3.20
2014,01,12,00,25,3.20
2014,01,12,00,26,3.30
2014,01,12,00,27,3.30
2014,01,12,00,28,3.30
2014,01,12,00,29,3.30
2014,01,12,00,30,3.30
2014,01,12,00,31,3.40
2014,01,12,00,32,3.40
2014,01,12,00,33,3.50
2014,01,12,00,34,3.50
2014,01,12,00,35,3.60
2014,01,12,00,36,3.60
2014,01,12,00,37,3.70
2014,01,12,00,38,3.70
2014,01,12,00,39,3.70
2014,01,12,00,40,3.80
2014,01,12,00,41,3.80
2014,01,12,00,42,3.80
2014,01,12,00,43,3.90
2014,01,12,00,44,3.90
2014,01,12,00,45,4.00
2014,01,12,00,46,4.00
2014,01,12,00,47,4.10
2014,01,12,00,48,4.10
2014,01,12,00,49,4.10
2014,01,12,00,50,4.10
2014,01,12,00,51,4.10
2014,01,12,00,52,4.10
2014,01,12,00,53,4.10
2014,01,12,00,54,4.20
2014,01,12,00,55,4.20
2014,01,12,00,56,4.20
2014,01,12,00,57,4.20
2014,01,12,00,58,4.20
2014,01,12,00,59,4.20
2014,01,12,01,00,4.20
2014,01,12,01,01,4.20
2014,01,12,01,02,4.30
2014,01,12,01,03,4.30
2014,01,12,01,04,4.30
2014,01,12,01,05,4.30
2014,01,12,01,06,4.40
2014,01,12,01,07,4.40
2014,01,12,01,08,4.40
2014,01,12,01,09,4.40
2014,01,12,01,10,4.40
2014,01,12,01,11,4.40
2014,01,12,01,12,4.40
2014,01,12,01,13,4.40
2014,01,12,01,14,4.40
2014,01,12,01,15,4.40
2014,01,12,01,16,4.40
2014,01,12,01,17,4.40
2014,01,12,01,18,4.40
2014,01,12,01,19,4.40
2014,01,12,01,20,4.40
2014,01,12,01,21,4.40
2014,01,12,01,22,4.40
2014,01,12,01,23,4.40
2014,01,12,01,24,4.40
2014,01,12,01,25,4.40
2014,01,12,01,26,4.40
2014,01,12,01,27,4.40
2014,01,12,01,28,4.40
2014,01,12,01,29,4.40
2014,01,12,01,30,4.40
2014,01,12,01,31,4.50
2014,01,12,01,32,4.50
2014,01,12,01,33,4.50
2014,01,12,01,34,4.50
2014,01,12,01,35,4.50
2014,01,12,01,36,4.60
2014,01,12,01,37,4.60
2014,01,12,01,38,4.60
2014,01,12,01,39,4.60
2014,01,12,01,40,4.60
2014,01,12,01,41,4.60
2014,01,12,01,42,4.70
2014,01,12,01,43,4.70
2014,01,12,01,44,4.70
2014,01,12,01,45,4.70
2014,01,12,01,46,4.70
2014,01,12,01,47,4.70
2014,01,12,01,48,4.70
2014,01,12,01,49,4.70
2014,01,12,01,50,4.70
2014,01,12,01,51,4.70
2014,01,12,01,52,4.70
2014,01,12,01,53,4.70
2014,01,12,01,54,4.70
2014,01,12,01,55,4.70
2014,01,12,01,56,4.70
2014,01,12,01,57,4.80
2014,01,12,01,58,4.80
2014,01,12,01,59,4.80
2014,01,12,02,00,4.80
2014,01,12,02,01,4.80
2014,01,12,02,02,4.80
2014,01,12,02,03,4.80
2014,01,12,02,04,4.70
2014,01,12,02,05,4.70
2014,01,12,02,06,4.80
2014,01,12,02,07,4.70
2014,01,12,02,08,4.70
2014,01,12,02,09,4.80
2014,01,12,02,10,4.80
2014,01,12,02,11,4.80
2014,01,12,02,12,4.80
2014,01,12,02,13,4.80
2014,01,12,02,14,4.80
2014,01,12,02,15,4.80
2014,01,12,02,16,4.80
2014,01,12,02,17,4.80
2014,01,12,02,18,4.80
2014,01,12,02,19,4.90
2014,01,12,02,20,4.90
2014,01,12,02,21,4.90
2014,01,12,02,22,4.90
2014,01,12,02,23,4.90
2014,01,12,02,24,4.90
2014,01,12,02,25,4.90
2014,01,12,02,26,4.90
2014,01,12,02,27,4.90
2014,01,12,02,28,5.00
2014,01,12,02,29,5.00
2014,01,12,02,30,5.00
2014,01,12,02,31,5.00
2014,01,12,02,32,5.00
2014,01,12,02,33,5.10
2014,01,12,02,34,5.10
2014,01,12,02,35,5.10
2014,01,12,02,36,5.10
2014,01,12,02,37,5.10
2014,01,12,02,38,5.10
2014,01,12,02,39,5.10
2014,01,12,02,40,5.20
2014,01,12,02,41,5.20
2014,01,12,02,42,5.20
2014,01,12,02,43,5.20
2014,01,12,02,44,5.20
2014,01,12,02,45,5.20
2014,01,12,02,46,5.20
2014,01,12,02,47,5.20
2014,01,12,02,48,5.20
2014,01,12,02,49,5.30
2014,01,12,02,50,5.30
2014,01,12,02,51,5.30
2014,01,12,02,52,5.30
2014,01,12,02,53,5.30
2014,01,12,02,54,5.30
2014,01,12,02,55,5.30
2014,01,12,02,56,5.30
2014,01,12,02,57,5.30
2014,01,12,02,58,5.30
2014,01,12,02,59,5.40
2014,01,12,03,00,5.40
2014,01,12,03,01,5.40
2014,01,12,03,02,5.40
2014,01,12,03,03,5.40
2014,01,12,10,04,5.40
2014,01,12,10,05,5.50
2014,01,12,10,06,5.50
2014,01,12,10,07,5.50
2014,01,12,10,08,5.50
2014,01,12,10,09,5.50
2014,01,12,10,10,5.50
2014,01,12,10,11,5.50
2014,01,12,10,12,5.50
2014,01,12,10,13,5.50
2014,01,12,10,14,5.50
2014,01,12,10,15,5.50
2014,01,12,10,16,5.60
2014,01,12,10,17,5.60
2014,01,12,10,18,5.60
2014,01,12,10,19,5.60
2014,01,12,10,20,5.60
2014,01,12,10,21,5.60
2014,01,12,10,22,5.60
2014,01,12,10,23,5.60
2014,01,12,10,24,5.60
2014,01,12,10,25,5.60
2014,01,12,10,26,5.60
2014,01,12,10,27,5.60
2014,01,12,10,28,5.60
2014,01,12,10,29,5.60
2014,01,12,10,30,5.60
2014,01,12,10,31,5.70
2014,01,12,10,32,5.70
2014,01,12,10,33,5.70
2014,01,12,10,34,5.70
2014,01,12,10,35,5.70
2014,01,12,10,36,5.70
2014,01,12,10,37,5.70
2014,01,12,10,38,5.70
2014,01,12,10,39,5.70
2014,01,12,10,40,5.70
2014,01,12,10,41,5.70
2014,01,12,10,42,5.70
2014,01,12,10,43,5.70
2014,01,12,10,44,5.70
2014,01,12,10,45,5.70
2014,01,12,10,46,5.70
2014,01,12,10,47,5.70
2014,01,12,10,48,5.70
2014,01,12,10,49,5.70
2014,01,12,10,50,5.70
2014,01,12,10,51,5.70
2014,01,12,10,52,5.80
2014,01,12,10,53,5.80
2014,01,12,10,54,5.80
2014,01,12,10,55,5.80
2014,01,12,10,56,5.80
2014,01,12,10,57,5.80
2014,01,12,10,58,5.80
2014,01,12,10,59,5.80
2014,01,12,11,00,5.80
2014,01,12,11,01,5.80
2014,01,12,11,02,5.80
2014,01,12,11,03,5.80
2014,01,12,11,04,5.80
2014,01,12,11,05,5.80
2014,01,12,11,06,5.90
2014,01,12,11,07,5.90
2014,01,12,11,08,5.90
2014,01,12,11,09,5.90
2014,01,12,11,10,5.90
2014,01,12,11,11,5.90
2014,01,12,11,12,5.90
2014,01,12,11,13,5.90
2014,01,12,11,14,5.90
2014,01,12,11,15,6.00
2014,01,12,11,16,6.00
2014,01,12,11,17,6.00
2014,01,12,11,18,6.00
2014,01,12,11,19,6.10
2014,01,12,11,20,6.10
2014,01,12,11,21,6.10
2014,01,12,11,22,6.10
2014,01,12,11,23,6.10
2014,01,12,11,24,6.20
2014,01,12,11,25,6.20
2014,01,12,11,26,6.20
2014,01,12,11,27,6.20
2014,01,12,11,28,6.20
2014,01,12,11,29,6.20
2014,01,12,11,30,6.20
2014,01,12,11,31,6.20
2014,01,12,11,32,6.20
2014,01,12,11,33,6.20
2014,01,12,11,34,6.20
2014,01,12,11,35,6.20
2014,01,12,11,36,6.20
2014,01,12,11,37,6.30
2014,01,12,11,38,6.30
2014,01,12,11,39,6.30
2014,01,12,11,40,6.30
2014,01,12,11,41,6.30
2014,01,12,11,42,6.30
2014,01,12,11,43,6.30
2014,01,12,11,44,6.30
2014,01,12,11,45,6.30
2014,01,12,11,46,6.30
2014,01,12,11,47,6.30
2014,01,12,11,48,6.30
2014,01,12,11,49,6.30
2014,01,12,11,50,6.40
2014,01,12,11,51,6.40
2014,01,12,11,52,6.40
2014,01,12,11,53,6.40
2014,01,12,11,54,6.40
2014,01,12,11,55,6.40
2014,01,12,11,56,6.40
2014,01,12,11,57,6.40
2014,01,12,11,58,6.40
2014,01,12,11,59,6.40
2014,01,12,12,00,6.40
2014,01,12,12,01,6.30
2014,01,12,12,02,6.30
2014,01,12,12,03,6.30
2014,01,12,12,04,6.30
2014,01,12,12,05,6.40
2014,01,12,12,06,6.40
2014,01,12,12,07,6.40
2014,01,12,12,08,6.40
2014,01,12,12,09,6.40
2014,01,12,12,10,6.40
2014,01,12,12,11,6.50
2014,01,12,12,12,6.50
2014,01,12,12,13,6.50
2014,01,12,12,14,6.50
2014,01,12,12,15,6.60
2014,01,12,12,16,6.60
2014,01,12,12,17,6.60
2014,01,12,12,18,6.70
2014,01,12,12,19,6.70
2014,01,12,12,20,6.70
2014,01,12,12,21,6.70
2014,01,12,12,22,6.80
2014,01,12,12,23,6.80
2014,01,12,12,24,6.80
2014,01,12,12,25,6.80
2014,01,12,12,26,6.80
2014,01,12,12,27,6.80
2014,01,12,12,28,6.90
2014,01,12,12,29,6.90
2014,01,12,12,30,6.90
2014,01,12,12,31,6.90
2014,01,12,12,32,6.90
2014,01,12,12,33,6.90
2014,01,12,12,34,7.00
2014,01,12,12,35,7.00
2014,01,12,12,36,7.00
2014,01,12,12,37,7.00
2014,01,12,12,38,7.10
2014,01,12,12,39,7.10
2014,01,12,12,40,7.10
2014,01,12,12,41,7.10
2014,01,12,12,42,7.20
2014,01,12,12,43,7.20
2014,01,12,12,44,7.20
2014,01,12,12,45,7.20
2014,01,12,12,46,7.20
2014,01,12,12,47,7.20
2014,01,12,12,48,7.20
2014,01,12,12,49,7.20
2014,01,12,12,50,7.20
2014,01,12,12,51,7.20
2014,01,12,12,52,7.30
2014,01,12,12,53,7.30
2014,01,12,12,54,7.30
2014,01,12,12,55,7.30
2014,01,12,12,56,7.30
2014,01,12,12,57,7.30
2014,01,12,12,58,7.30
2014,01,12,12,59,7.30
2014,01,12,13,00,7.30
2014,01,12,13,01,7.30
2014,01,12,13,02,7.40
2014,01,12,13,03,7.40
2014,01,12,13,04,7.40
2014,01,12,13,05,7.40
2014,01,12,13,06,7.50
2014,01,12,13,07,7.50
2014,01,12,13,08,7.50
2014,01,12,13,09,7.50
2014,01,12,13,10,7.50
2014,01,12,13,11,7.50
2014,01,12,13,12,7.50
2014,01,12,13,13,7.50
2014,01,12,13,14,7.50
2014,01,12,13,15,7.50
2014,01,12,13,16,7.50
2014,01,12,13,17,7.50
2014,01,12,13,18,7.50
2014,01,12,13,19,7.50
2014,01,12,13,20,7.50
2014,01,12,13,21,7.50
2014,01,12,13,22,7.50
2014,01,12,13,23,7.50
2014,01,12,13,24,7.50
2014,01,12,13,25,7.50
2014,01,12,13,26,7.50
2014,01,12,13,27,7.50
2014,01,12,13,28,7.40
2014,01,12,13,29,7.40
2014,01,12,13,30,7.40
2014,01,12,13,31,7.30
2014,01,12,13,32,7.30
2014,01,12,13,33,7.30
2014,01,12,13,34,7.30
2014,01,12,13,35,7.20
2014,01,12,13,36,7.20
2014,01,12,13,37,7.20
2014,01,12,13,38,7.20
2014,01,12,13,39,7.10
2014,01,12,13,40,7.10
2014,01,12,13,41,7.00
2014,01,12,13,42,6.90
2014,01,12,13,43,6.80
2014,01,12,13,44,6.80
2014,01,12,13,45,6.70
2014,01,12,13,46,6.70
2014,01,12,13,47,6.60
2014,01,12,13,48,6.60
2014,01,12,13,49,6.60
2014,01,12,13,50,6.50
2014,01,12,13,51,6.50
2014,01,12,13,52,6.40
2014,01,12,13,53,6.40
2014,01,12,13,54,6.30
2014,01,12,13,55,6.30
2014,01,12,13,56,6.30
2014,01,12,13,57,6.30
2014,01,12,13,58,6.30
2014,01,12,13,59,6.20
2014,01,12,14,00,6.20
2014,01,12,14,01,6.20
2014,01,12,14,02,6.20
2014,01,12,14,03,6.20
2014,01,12,14,04,6.20
2014,01,12,14,05,6.10
2014,01,12,14,06,6.10
2014,01,12,14,07,6.10
2014,01,12,14,08,6.10
2014,01,12,14,09,6.10
2014,01,12,14,10,6.10
2014,01,12,14,11,6.20
2014,01,12,14,12,6.10
2014,01,12,14,13,6.10
2014,01,12,14,14,6.20
2014,01,12,14,15,6.20
2014,01,12,14,16,6.10
2014,01,12,14,17,6.20
2014,01,12,14,18,6.20
2014,01,12,14,19,6.20
2014,01,12,14,20,6.10
2014,01,12,14,21,6.20
2014,01,12,14,22,6.20
2014,01,12,14,23,6.20
2014,01,12,14,24,6.20
2014,01,12,14,25,6.20
2014,01,12,14,26,6.20
2014,01,12,14,27,6.20
2014,01,12,14,28,6.20
2014,01,12,14,29,6.20
2014,01,12,14,30,6.20
2014,01,12,14,31,6.20
2014,01,12,14,32,6.20
2014,01,12,14,33,6.20
2014,01,12,14,34,6.20
2014,01,12,14,35,6.20
2014,01,12,14,36,6.20
2014,01,12,14,37,6.20
2014,01,12,14,38,6.20
2014,01,12,14,39,6.20
2014,01,12,14,40,6.20
2014,01,12,14,41,6.20
2014,01,12,14,42,6.20
2014,01,12,14,43,6.20
2014,01,12,14,44,6.20
2014,01,12,14,45,6.20
2014,01,12,14,46,6.20
2014,01,12,14,47,6.20
2014,01,12,14,48,6.20
2014,01,12,14,49,6.30
2014,01,12,14,50,6.30
2014,01,12,14,51,6.30
2014,01,12,14,52,6.30
2014,01,12,14,53,6.30
2014,01,12,14,54,6.30
2014,01,12,14,55,6.30
2014,01,12,14,56,6.30
2014,01,12,14,57,6.30
2014,01,12,14,58,6.30
2014,01,12,14,59,6.30
2014,01,12,15,00,6.30
2014,01,12,15,01,6.30
2014,01,12,15,02,6.30
2014,01,12,15,03,6.30
2014,01,12,15,04,6.30
2014,01,12,15,05,6.30
2014,01,12,15,06,6.30
2014,01,12,15,07,6.30
2014,01,12,15,08,6.30
2014,01,12,15,09,6.30
2014,01,12,15,10,6.30
2014,01,12,15,11,6.30
2014,01,12,15,12,6.30
2014,01,12,15,13,6.30
2014,01,12,15,14,6.30
2014,01,12,15,15,6.30
2014,01,12,15,16,6.30
2014,01,12,15,17,6.30
2014,01,12,15,18,6.30
2014,01,12,15,19,6.30
2014,01,12,15,20,6.30
2014,01,12,15,21,6.40
2014,01,12,15,22,6.40
2014,01,12,15,23,6.40
2014,01,12,15,24,6.40
2014,01,12,15,25,6.40
2014,01,12,15,26,6.40
2014,01,12,15,27,6.50
2014,01,12,15,28,6.50
2014,01,12,15,29,6.50
2014,01,12,15,30,6.50
2014,01,12,15,31,6.50
2014,01,12,15,32,6.50
2014,01,12,15,33,6.50
2014,01,12,15,34,6.50
2014,01,12,15,35,6.50
2014,01,12,15,36,6.50
2014,01,12,15,37,6.60
2014,01,12,15,38,6.60
2014,01,12,15,39,6.60
2014,01,12,15,40,6.60
2014,01,12,15,41,6.60
2014,01,12,15,42,6.60
2014,01,12,15,43,6.60
2014,01,12,15,44,6.60
2014,01,12,15,45,6.60
2014,01,12,15,46,6.60
2014,01,12,15,47,6.60
2014,01,12,15,48,6.60
2014,01,12,15,49,6.60
2014,01,12,15,50,6.60
2014,01,12,15,51,6.60
2014,01,12,15,52,6.60
2014,01,12,15,53,6.60
2014,01,12,15,54,6.60
2014,01,12,15,55,6.60
2014,01,12,15,56,6.60
2014,01,12,15,57,6.60
2014,01,12,15,58,6.60
2014,01,12,15,59,6.60
2014,01,12,16,00,6.60
2014,01,12,16,01,6.60
2014,01,12,16,02,6.60
2014,01,12,16,03,6.60
2014,01,12,16,04,6.50
2014,01,12,16,05,6.50
2014,01,12,16,06,6.50
2014,01,12,16,07,6.50
2014,01,12,16,08,6.50
2014,01,12,16,09,6.50
2014,01,12,16,10,6.40
2014,01,12,16,11,6.50
2014,01,12,16,12,6.40
2014,01,12,16,13,6.40
2014,01,12,16,14,6.40
2014,01,12,16,15,6.40
2014,01,12,16,16,6.40
2014,01,12,16,17,6.40
2014,01,12,16,18,6.40
2014,01,12,16,19,6.40
2014,01,12,16,20,6.40
2014,01,12,16,21,6.40
2014,01,12,16,22,6.40
2014,01,12,16,23,6.40
2014,01,12,16,24,6.40
2014,01,12,16,25,6.30
2014,01,12,16,26,6.30
2014,01,12,16,27,6.30
2014,01,12,16,28,6.30
2014,01,12,16,29,6.30
2014,01,12,16,30,6.30
2014,01,12,16,31,6.30
2014,01,12,16,32,6.30
2014,01,12,16,33,6.20
2014,01,12,16,34,6.20
2014,01,12,16,35,6.20
2014,01,12,16,36,6.20
2014,01,12,16,37,6.20
2014,01,12,16,38,6.20
2014,01,12,16,39,6.10
2014,01,12,16,40,6.10
2014,01,12,16,41,6.10
2014,01,12,16,42,6.10
2014,01,12,16,43,6.10
2014,01,12,16,44,6.10
2014,01,12,16,45,6.00
2014,01,12,16,46,6.00
2014,01,12,16,47,6.00
2014,01,12,16,48,5.90
2014,01,12,16,49,5.90
2014,01,12,16,50,5.90
2014,01,12,16,51,5.90
2014,01,12,16,52,5.90
2014,01,12,16,53,5.90
2014,01,12,16,54,5.80
2014,01,12,16,55,5.80
2014,01,12,16,56,5.80
2014,01,12,16,57,5.80
2014,01,12,16,58,5.80
2014,01,12,16,59,5.80
2014,01,12,17,00,5.70
2014,01,12,17,01,5.70
2014,01,12,17,02,5.70
2014,01,12,17,03,5.70
2014,01,12,17,04,5.70
2014,01,12,17,05,5.70
2014,01,12,17,06,5.70
2014,01,12,17,07,5.70
2014,01,12,17,08,5.70
2014,01,12,17,09,5.70
2014,01,12,17,10,5.70
2014,01,12,17,11,5.70
2014,01,12,17,12,5.70
2014,01,12,17,13,5.60
2014,01,12,17,14,5.60
2014,01,12,17,15,5.60
2014,01,12,17,16,5.60
2014,01,12,17,17,5.60
2014,01,12,17,18,5.60
2014,01,12,17,19,5.60
2014,01,12,17,20,5.60
2014,01,12,17,21,5.60
2014,01,12,17,22,5.60
2014,01,12,17,23,5.60
2014,01,12,17,24,5.60
2014,01,12,17,25,5.60
2014,01,12,17,26,5.60
2014,01,12,17,27,5.60
2014,01,12,17,28,5.60
2014,01,12,17,29,5.60
2014,01,12,17,30,5.60
2014,01,12,17,31,5.60
2014,01,12,17,32,5.70
2014,01,12,17,33,5.70
2014,01,12,17,34,5.70
2014,01,12,17,35,5.70
2014,01,12,17,36,5.70
2014,01,12,17,37,5.70
2014,01,12,17,38,5.70
2014,01,12,17,39,5.70
2014,01,12,17,40,5.70
2014,01,12,17,41,5.70
2014,01,12,17,42,5.70
2014,01,12,17,43,5.70
2014,01,12,17,44,5.70
2014,01,12,17,45,5.70
2014,01,12,17,46,5.70
2014,01,12,17,47,5.70
2014,01,12,17,48,5.70
2014,01,12,17,49,5.70
2014,01,12,17,50,5.70
2014,01,12,17,51,5.70
2014,01,12,17,52,5.70
2014,01,12,17,53,5.70
2014,01,12,17,54,5.70
2014,01,12,17,55,5.70
2014,01,12,17,56,5.70
2014,01,12,17,57,5.70
2014,01,12,17,58,5.60
2014,01,12,17,59,5.60
2014,01,12,18,00,5.60
2014,01,12,18,01,5.60
2014,01,12,18,02,5.60
2014,01,12,18,03,5.60
2014,01,12,18,04,5.60
2014,01,12,18,05,5.60
2014,01,12,18,06,5.60
2014,01,12,18,07,5.60
2014,01,12,18,08,5.50
2014,01,12,18,09,5.50
2014,01,12,18,10,5.50
2014,01,12,18,11,5.50
2014,01,12,18,12,5.50
2014,01,12,18,13,5.50
2014,01,12,18,14,5.50
2014,01,12,18,15,5.50
2014,01,12,18,16,5.50
2014,01,12,18,17,5.50
2014,01,12,18,18,5.50
2014,01,12,18,19,5.50
2014,01,12,18,20,5.50
2014,01,12,18,21,5.50
2014,01,12,18,22,5.50
2014,01,12,18,23,5.50
2014,01,12,18,24,5.50
2014,01,12,18,25,5.50
2014,01,12,18,26,5.50
2014,01,12,18,27,5.50
2014,01,12,18,28,5.50
2014,01,12,18,29,5.50
2014,01,12,18,30,5.50
2014,01,12,18,31,5.50
2014,01,12,18,32,5.50
2014,01,12,18,33,5.50
2014,01,12,18,34,5.50
2014,01,12,18,35,5.50
2014,01,12,18,36,5.60
2014,01,12,18,37,5.50
2014,01,12,18,38,5.60
2014,01,12,18,39,5.60
2014,01,12,18,40,5.60
2014,01,12,18,41,5.60
2014,01,12,18,42,5.60
2014,01,12,18,43,5.60
2014,01,12,18,44,5.50
2014,01,12,18,45,5.60
2014,01,12,18,46,5.50
2014,01,12,18,47,5.50
2014,01,12,18,48,5.50
2014,01,12,18,49,5.50
2014,01,12,18,50,5.50
2014,01,12,18,51,5.50
2014,01,12,18,52,5.50
2014,01,12,18,53,5.50
2014,01,12,18,54,5.50
2014,01,12,18,55,5.50
2014,01,12,18,56,5.50
2014,01,12,18,57,5.50
2014,01,12,18,58,5.50
2014,01,12,18,59,5.40
2014,01,12,19,00,5.50
2014,01,12,19,01,5.40
2014,01,12,19,02,5.40
2014,01,12,19,03,5.40
2014,01,12,19,04,5.40
2014,01,12,19,05,5.40
2014,01,12,19,06,5.40
2014,01,12,19,07,5.40
2014,01,12,19,08,5.40
2014,01,12,19,09,5.40
2014,01,12,19,10,5.40
2014,01,12,19,11,5.40
2014,01,12,19,12,5.40
2014,01,12,19,13,5.40
2014,01,12,19,14,5.40
2014,01,12,19,15,5.40
2014,01,12,19,16,5.40
2014,01,12,19,17,5.40
2014,01,12,19,18,5.40
2014,01,12,19,19,5.40
2014,01,12,19,20,5.40
2014,01,12,19,21,5.40
2014,01,12,19,22,5.40
2014,01,12,19,23,5.40
2014,01,12,19,24,5.40
2014,01,12,19,25,5.40
2014,01,12,19,26,5.40
2014,01,12,19,27,5.40
2014,01,12,19,28,5.40
2014,01,12,19,29,5.40
2014,01,12,19,30,5.40
2014,01,12,19,31,5.40
2014,01,12,19,32,5.40
2014,01,12,19,33,5.40
2014,01,12,19,34,5.40
2014,01,12,19,35,5.40
2014,01,12,19,36,5.30
2014,01,12,19,37,5.30
2014,01,12,19,38,5.30
2014,01,12,19,39,5.30
2014,01,12,19,40,5.30
2014,01,12,19,41,5.30
2014,01,12,19,42,5.30
2014,01,12,19,43,5.30
2014,01,12,19,44,5.30
2014,01,12,19,45,5.30
2014,01,12,19,46,5.30
2014,01,12,19,47,5.30
2014,01,12,19,48,5.30
2014,01,12,19,49,5.30
2014,01,12,19,50,5.30
2014,01,12,19,51,5.30
2014,01,12,19,52,5.30
2014,01,12,19,53,5.30
2014,01,12,19,54,5.30
2014,01,12,19,55,5.30
2014,01,12,19,56,5.30
2014,01,12,19,57,5.30
2014,01,12,19,58,5.30
2014,01,12,19,59,5.30
2014,01,12,20,00,5.30
2014,01,12,20,01,5.30
2014,01,12,20,02,5.30
2014,01,12,20,03,5.30
2014,01,12,20,04,5.30
2014,01,12,20,05,5.30
2014,01,12,20,06,5.30
2014,01,12,20,07,5.30
2014,01,12,20,08,5.30
2014,01,12,20,09,5.30
2014,01,12,20,10,5.30
2014,01,12,20,11,5.30
2014,01,12,20,12,5.30
2014,01,12,20,13,5.30
2014,01,12,20,14,5.30
2014,01,12,20,15,5.30
2014,01,12,20,16,5.30
2014,01,12,20,17,5.30
2014,01,12,20,18,5.30
2014,01,12,20,19,5.30
2014,01,12,20,20,5.30
2014,01,12,20,21,5.30
2014,01,12,20,22,5.30
2014,01,12,20,23,5.30
2014,01,12,20,24,5.30
2014,01,12,20,25,5.30
2014,01,12,20,26,5.30
2014,01,12,20,27,5.30
2014,01,12,20,28,5.30
2014,01,12,20,29,5.30
2014,01,12,20,30,5.30
2014,01,12,20,31,5.30
2014,01,12,20,32,5.30
2014,01,12,20,33,5.30
2014,01,12,20,34,5.30
2014,01,12,20,35,5.30
2014,01,12,20,36,5.30
2014,01,12,20,37,5.30
2014,01,12,20,38,5.30
2014,01,12,20,39,5.30
2014,01,12,20,40,5.30
2014,01,12,20,41,5.30
2014,01,12,20,42,5.30
2014,01,12,20,43,5.30
2014,01,12,20,44,5.30
2014,01,12,20,45,5.30
2014,01,12,20,46,5.30
2014,01,12,20,47,5.30
2014,01,12,20,48,5.30
2014,01,12,20,49,5.30
2014,01,12,20,50,5.30
2014,01,12,20,51,5.30
2014,01,12,20,52,5.30
2014,01,12,20,53,5.30
2014,01,12,20,54,5.30
2014,01,12,20,55,5.30
2014,01,12,20,56,5.30
2014,01,12,20,57,5.30
2014,01,12,20,58,5.30
2014,01,12,20,59,5.30
2014,01,12,21,00,5.30
2014,01,12,21,01,5.30
2014,01,12,21,02,5.30
2014,01,12,21,03,5.30
2014,01,12,21,04,5.20
2014,01,12,21,05,5.20
2014,01,12,21,06,5.20
2014,01,12,21,07,5.20
2014,01,12,21,08,5.20
2014,01,12,21,09,5.20
2014,01,12,21,10,5.20
2014,01,12,21,11,5.20
2014,01,12,21,12,5.20
2014,01,12,21,13,5.20
2014,01,12,21,14,5.20
2014,01,12,21,15,5.20
2014,01,12,21,16,5.20
2014,01,12,21,17,5.20
2014,01,12,21,18,5.20
2014,01,12,21,19,5.20
2014,01,12,21,20,5.20
2014,01,12,21,21,5.20
2014,01,12,21,22,5.20
2014,01,12,21,23,5.20
2014,01,12,21,24,5.10
2014,01,12,21,25,5.10
2014,01,12,21,26,5.10
2014,01,12,21,27,5.10
2014,01,12,21,28,5.10
2014,01,12,21,29,5.10
2014,01,12,21,30,5.10
2014,01,12,21,31,5.10
2014,01,12,21,32,5.10
2014,01,12,21,33,5.10
2014,01,12,21,34,5.10
2014,01,12,21,35,5.10
2014,01,12,21,36,5.10
2014,01,12,21,37,5.10
2014,01,12,21,38,5.10
2014,01,12,21,39,5.10
2014,01,12,21,40,5.00
2014,01,12,21,41,5.00
2014,01,12,21,42,5.00
2014,01,12,21,43,5.00
2014,01,12,21,44,5.00
2014,01,12,21,45,5.00
2014,01,12,21,46,5.00
2014,01,12,21,47,5.00
2014,01,12,21,48,5.00
2014,01,12,21,49,5.00
2014,01,12,21,50,5.00
2014,01,12,21,51,5.00
2014,01,12,21,52,5.00
2014,01,12,21,53,5.00
2014,01,12,21,54,5.00
2014,01,12,21,55,4.90
2014,01,12,21,56,4.90
2014,01,12,21,57,4.90
2014,01,12,21,58,4.90
2014,01,12,21,59,4.90
2014,01,12,22,00,4.90
2014,01,12,22,01,4.90
2014,01,12,22,02,4.90
2014,01,12,22,03,4.90
2014,01,12,22,04,4.90
2014,01,12,22,05,4.90
2014,01,12,22,06,4.90
2014,01,12,22,07,4.90
2014,01,12,22,08,4.90
2014,01,12,22,09,4.90
2014,01,12,22,10,4.90
2014,01,12,22,11,4.90
2014,01,12,22,12,4.80
2014,01,12,22,13,4.80
2014,01,12,22,14,4.80
2014,01,12,22,15,4.80
2014,01,12,22,16,4.80
2014,01,12,22,17,4.80
2014,01,12,22,18,4.80
2014,01,12,22,19,4.80
2014,01,12,22,20,4.80
2014,01,12,22,21,4.70
2014,01,12,22,22,4.70
2014,01,12,22,23,4.70
2014,01,12,22,24,4.70
2014,01,12,22,25,4.70
2014,01,12,22,26,4.70
2014,01,12,22,27,4.70
2014,01,12,22,28,4.70
2014,01,12,22,29,4.70
2014,01,12,22,30,4.70
2014,01,12,22,31,4.70
2014,01,12,22,32,4.70
2014,01,12,22,33,4.70
2014,01,12,22,34,4.70
2014,01,12,22,35,4.70
2014,01,12,22,36,4.70
2014,01,12,22,37,4.70
2014,01,12,22,38,4.70
2014,01,12,22,39,4.70
2014,01,12,22,40,4.70
2014,01,12,22,41,4.70
2014,01,12,22,42,4.70
2014,01,12,22,43,4.70
2014,01,12,22,44,4.70
2014,01,12,22,45,4.70
2014,01,12,22,46,4.70
2014,01,12,22,47,4.70
2014,01,12,22,48,4.70
2014,01,12,22,49,4.80
2014,01,12,22,50,4.80
2014,01,12,22,51,4.80
2014,01,12,22,52,4.80
2014,01,12,22,53,4.80
2014,01,12,22,54,4.80
2014,01,12,22,55,4.80
2014,01,12,22,56,4.80
2014,01,12,22,57,4.80
2014,01,12,22,58,4.80
2014,01,12,22,59,4.80
2014,01,12,23,00,4.80
2014,01,12,23,01,4.80
2014,01,12,23,02,4.90
2014,01,12,23,03,4.90
2014,01,12,23,04,4.90
2014,01,12,23,05,4.90
2014,01,12,23,06,4.90
2014,01,12,23,07,4.90
2014,01,12,23,08,4.90
2014,01,12,23,09,4.90
2014,01,12,23,10,4.90
2014,01,12,23,11,4.90
2014,01,12,23,12,4.90
2014,01,12,23,13,4.90
2014,01,12,23,14,4.90
2014,01,12,23,15,4.90
2014,01,12,23,16,4.90
2014,01,12,23,17,4.90
2014,01,12,23,18,4.90
2014,01,12,23,19,4.90
2014,01,12,23,20,4.90
2014,01,12,23,21,4.90
2014,01,12,23,22,4.90
2014,01,12,23,23,4.90
2014,01,12,23,24,4.90
2014,01,12,23,25,4.90
2014,01,12,23,26,4.90
2014,01,12,23,27,4.90
2014,01,12,23,28,4.90
2014,01,12,23,29,4.90
2014,01,12,23,30,4.90
2014,01,12,23,31,4.90
2014,01,12,23,32,4.90
2014,01,12,23,33,4.90
2014,01,12,23,34,4.90
2014,01,12,23,35,4.90
2014,01,12,23,36,4.90
2014,01,12,23,37,4.90
2014,01,12,23,38,4.90
2014,01,12,23,39,4.90
2014,01,12,23,40,4.90
2014,01,12,23,41,4.90
2014,01,12,23,42,4.90
2014,01,12,23,43,4.90
2014,01,12,23,44,4.90
2014,01,12,23,45,4.90
2014,01,12,23,46,4.90
2014,01,12,23,47,4.90
2014,01,12,23,48,4.90
2014,01,12,23,49,4.90
2014,01,12,23,50,4.90
2014,01,12,23,51,4.90
2014,01,12,23,52,4.90
2014,01,12,23,53,4.90
2014,01,12,23,54,4.90
2014,01,12,23,55,4.90
2014,01,12,23,56,4.90
2014,01,12,23,57,4.90
2014,01,12,23,58,4.90
2014,01,12,23,59,4.90
